ATLAS 5 CENTAUR DEB, 44986

Orbit data source: Space-Track

ATLAS 5 CENTAUR DEB, 44986 is space debris in HEO originally from a launch on Wed, 17 Oct 2018 UTC launched from the Air Force Eastern Test Range (AFETR). Debris objects in space refer to the collection of defunct objects orbiting the Earth. Examples of debris include non-operational satellites, rocket bodies, and fragments generated from explosions, collisions, or faulty payload assembly.

Loading next visibility...
Identifier
44986, 2018-079BS
Orbit
HEO
Country
Flag of USUS
Related business
Flag of USUnited Launch Alliance/Lockheed Martin (US)
Manufacturer
ULA Decatur
Mission
Spacecraft
Bus & Motor
Unknown
Mass
Unknown
Launch date (UTC)
2018-10-17 (8 years ago)
Launch vehicle
Unknown
Launch site
Air Force Eastern Test Range (AFETR)
Object type
Payload
Rocket body
Debris
Shape & HBR
Unknown shape, 1.1 m
Radar Cross Section
RCS unknown

Expand to show TLE details & history
Last TLE update: 6 months ago

TLE from 6 months ago
0 ATLAS 5 CENTAUR DEB
1 44986U 18079BS  25301.09949565 -.00000108  00000-0  00000-0 0  9994
2 44986  12.9791  47.4969 4713652 294.6926  24.0721  1.84074827 39950
Epoch: 2025-10-28T02:23Z
TLE epoch observation values (Epoch: 2025-10-28T02:23:16.424Z)
Latitude
0.00001°
Longitude
-25.06582°
Altitude
11,889.072 km
Speed
5.428 km/s
True Right ascension
03h 09m 46s
True Declination
0° 00' 00"
Sunlit
Object was in full shadow at epoch
Visualization orbit readout
Latitude
Unknown
Longitude
Unknown
Altitude
Unknown
Speed
Unknown
Apparent Right ascension
Unknown
Apparent Declination
Unknown
Sunlit
N/A
Visualization observer readout
Local Sidereal Time
01:39:38
Azimuth
Unknown
Elevation
Unknown
Doppler factor
Unknown
Orbital elements
Apogee altitude
35,005.206 km
Perigee altitude
8,490.147 km
Semi-major axis
28,125.813 km
Eccentricity
0.47137
Inclination
12.9791°
RAAN
47.4969°
Arg. of periapsis
294.6926°
True anomaly
65.5712°
Mean anomaly
24.0721°
Eccentric anomaly
42.22061°
Mean motion
0.46014 °/min
Orbital period
782.38 mins
BSTAR
0
Loading maneuver chart data...
Computing Atmospheric mass density...

Documentation

Showing up to 5 results
|